Terminal Aerodrome Forecast
Issued by NWS Charleston, WV

Current Version | Previous Version | Graphics & Text | Print | Product List | Glossary On
Versions: 1 2 3 4 5 6 7 8 9 10 11 12 13 14 15 16 17 18 19 20 21 22 23
000
FTUS41 KRLX 181700
TAFPKB
TAF
KPKB 181738Z 1818/1918 27005KT P6SM OVC025
     FM182200 27004KT P6SM SCT025 BKN060
     FM190800 28004KT P6SM -SHSN BKN022=

USA.gov is the U.S. government's official web portal to all federal, state and local government web resources and services.